Dati Storici

Data ora Umidita' aria (%) Temperatura aria (°C) Rad globale (W/m²) Gonioanemometro (°) Tacoanemometro (m/s) Pioggia (mm)
20-06-2020 14:50 52.6 % 24.668 71.859 1.937 0 0
20-06-2020 14:40 54.4 % 25.003 153.441 2.211 0 0
20-06-2020 14:30 53.5 % 25.056 93.268 2.921 0 0
20-06-2020 14:20 51.3 % 25.274 98.439 3.935 0 0
20-06-2020 14:10 50.2 % 25.982 114.238 2.435 0 0
20-06-2020 14:00 48.5 % 25.877 104.619 2.956 0 0
20-06-2020 13:50 49.1 % 25.366 139.203 1.198 0 0
20-06-2020 13:40 48 % 25.98 91.095 1.027 0 0
20-06-2020 13:30 46.3 % 25.491 172.735 3.013 0 0
20-06-2020 13:20 46.7 % 25.318 115.599 1.999 0 0
20-06-2020 13:10 46.5 % 25.65 93.776 2.615 0 0
20-06-2020 13:00 44.8 % 25.377 97.859 2.356 0 0
20-06-2020 12:50 45 % 26.001 154.657 2.49 0 0
20-06-2020 12:40 47.6 % 25.46 222.641 -0.017 0 0
20-06-2020 12:30 47.5 % 25.296 134.998 3.691 0 0
20-06-2020 12:20 48 % 25.12 199.098 2.053 0 0
20-06-2020 12:10 48.4 % 25.339 198.295 1.612 0 0
20-06-2020 12:00 47.2 % 24.84 215.265 1.578 0 0
20-06-2020 11:50 52.5 % 25.265 161.656 1.374 0 0
20-06-2020 11:40 51.8 % 24.638 78.796 2.45 0 0

I dati sono presentati in modo automatico a scopo informativo. In seguito a verifica i dati possono subire modifiche o essere invalidati e non riportati negli archivi definitivi.